Torna al catalogo

ARIANE 44LP DEB

AttivoGTO
NORAD 27659·DEBRIS·🇫🇷 France

Lanciato Aug 8, 1989 da Guiana Space Centre

Loading…

TLE

In scadenzaSource: Space-Track

Epoca: Sep 14, 2026, 09:24 UTC

1 27659U 89062P   26257.39194041 -.00000026  00000-0  43871-2 0  9991
2 27659   6.8118 289.2981 7038479  49.7205   8.0235  2.32822466122366

Traccia ARIANE 44LP DEB in tempo reale con AllMySat

Download on the App Store